Year,Month,Day,Hour,Minute,Value (Times are PST for temperature in C)
2018,04,25,00,00,13.30
2018,04,25,00,01,13.40
2018,04,25,00,02,13.40
2018,04,25,00,03,13.40
2018,04,25,00,04,13.40
2018,04,25,00,05,13.40
2018,04,25,00,06,13.50
2018,04,25,00,07,13.50
2018,04,25,00,08,13.60
2018,04,25,00,09,13.60
2018,04,25,00,10,13.60
2018,04,25,00,11,13.60
2018,04,25,00,12,13.70
2018,04,25,00,13,13.70
2018,04,25,00,14,13.70
2018,04,25,00,15,13.70
2018,04,25,00,16,13.70
2018,04,25,00,17,13.70
2018,04,25,00,18,13.70
2018,04,25,00,19,13.70
2018,04,25,00,20,13.70
2018,04,25,00,21,13.60
2018,04,25,00,22,13.60
2018,04,25,00,23,13.60
2018,04,25,00,24,13.60
2018,04,25,00,25,13.60
2018,04,25,00,26,13.60
2018,04,25,00,27,13.60
2018,04,25,00,28,13.70
2018,04,25,00,29,13.70
2018,04,25,00,30,13.70
2018,04,25,00,31,13.70
2018,04,25,00,32,13.70
2018,04,25,00,33,13.70
2018,04,25,00,34,13.70
2018,04,25,00,35,13.70
2018,04,25,00,36,13.70
2018,04,25,00,37,13.70
2018,04,25,00,38,13.60
2018,04,25,00,39,13.70
2018,04,25,00,40,13.60
2018,04,25,00,41,13.60
2018,04,25,00,42,13.60
2018,04,25,00,43,13.70
2018,04,25,00,44,13.70
2018,04,25,00,45,13.70
2018,04,25,00,46,13.80
2018,04,25,00,47,13.80
2018,04,25,00,48,13.90
2018,04,25,00,49,14.00
2018,04,25,00,50,14.00
2018,04,25,00,51,14.20
2018,04,25,00,52,14.30
2018,04,25,00,53,14.30
2018,04,25,00,54,14.30
2018,04,25,00,55,14.30
2018,04,25,00,56,14.30
2018,04,25,00,57,14.30
2018,04,25,00,58,14.30
2018,04,25,00,59,14.30
2018,04,25,01,00,14.30
2018,04,25,01,01,14.30
2018,04,25,01,02,14.30
2018,04,25,01,03,14.30
2018,04,25,01,04,14.30
2018,04,25,01,05,14.30
2018,04,25,01,06,14.40
2018,04,25,01,07,14.40
2018,04,25,01,08,14.40
2018,04,25,01,09,14.40
2018,04,25,01,10,14.40
2018,04,25,01,11,14.40
2018,04,25,01,12,14.30
2018,04,25,01,13,14.30
2018,04,25,01,14,14.30
2018,04,25,01,15,14.20
2018,04,25,01,16,14.20
2018,04,25,01,17,14.10
2018,04,25,01,18,14.10
2018,04,25,01,19,14.00
2018,04,25,01,20,14.00
2018,04,25,01,21,13.90
2018,04,25,01,22,13.90
2018,04,25,01,23,13.90
2018,04,25,01,24,13.80
2018,04,25,01,25,13.80
2018,04,25,01,26,13.80
2018,04,25,01,27,13.70
2018,04,25,01,28,13.70
2018,04,25,01,29,13.60
2018,04,25,01,30,13.60
2018,04,25,01,31,13.50
2018,04,25,01,32,13.40
2018,04,25,01,33,13.30
2018,04,25,01,34,13.30
2018,04,25,01,35,13.20
2018,04,25,01,36,13.10
2018,04,25,01,37,13.10
2018,04,25,01,38,13.00
2018,04,25,01,39,12.90
2018,04,25,01,40,12.90
2018,04,25,01,41,12.80
2018,04,25,01,42,12.80
2018,04,25,01,43,12.80
2018,04,25,01,44,12.80
2018,04,25,01,45,12.80
2018,04,25,01,46,12.70
2018,04,25,01,47,12.70
2018,04,25,01,48,12.70
2018,04,25,01,49,12.70
2018,04,25,01,50,12.60
2018,04,25,01,51,12.60
2018,04,25,01,52,12.60
2018,04,25,01,53,12.60
2018,04,25,01,54,12.60
2018,04,25,01,55,12.60
2018,04,25,01,56,12.60
2018,04,25,01,57,12.70
2018,04,25,01,58,12.70
2018,04,25,01,59,12.70
2018,04,25,02,00,12.70
2018,04,25,02,01,12.70
2018,04,25,02,02,12.70
2018,04,25,02,03,12.70
2018,04,25,02,04,12.70
2018,04,25,02,05,12.70
2018,04,25,02,06,12.60
2018,04,25,02,07,12.60
2018,04,25,02,08,12.60
2018,04,25,02,09,12.50
2018,04,25,02,10,12.50
2018,04,25,02,11,12.40
2018,04,25,02,12,12.30
2018,04,25,02,13,12.20
2018,04,25,02,14,12.20
2018,04,25,02,15,12.00
2018,04,25,02,16,11.90
2018,04,25,02,17,11.80
2018,04,25,02,18,11.60
2018,04,25,02,19,11.50
2018,04,25,02,20,11.40
2018,04,25,02,21,11.30
2018,04,25,02,22,11.30
2018,04,25,02,23,11.20
2018,04,25,02,24,11.20
2018,04,25,02,25,11.10
2018,04,25,02,26,11.10
2018,04,25,02,27,11.00
2018,04,25,02,28,10.90
2018,04,25,02,29,10.90
2018,04,25,02,30,10.80
2018,04,25,02,31,10.70
2018,04,25,02,32,10.60
2018,04,25,02,33,10.60
2018,04,25,02,34,10.60
2018,04,25,02,35,10.60
2018,04,25,02,36,10.50
2018,04,25,02,37,10.50
2018,04,25,02,38,10.50
2018,04,25,02,39,10.40
2018,04,25,02,40,10.40
2018,04,25,02,41,10.40
2018,04,25,02,42,10.40
2018,04,25,02,43,10.40
2018,04,25,02,44,10.40
2018,04,25,02,45,10.40
2018,04,25,02,46,10.40
2018,04,25,02,47,10.40
2018,04,25,02,48,10.40
2018,04,25,02,49,10.40
2018,04,25,02,50,10.30
2018,04,25,02,51,10.30
2018,04,25,02,52,10.30
2018,04,25,02,53,10.30
2018,04,25,02,54,10.30
2018,04,25,02,55,10.30
2018,04,25,02,56,10.30
2018,04,25,02,57,10.30
2018,04,25,02,58,10.20
2018,04,25,02,59,10.20
2018,04,25,03,00,10.20
2018,04,25,03,01,10.10
2018,04,25,03,02,10.10
2018,04,25,03,03,10.10
2018,04,25,03,04,10.10
2018,04,25,03,05,10.00
2018,04,25,03,06,10.00
2018,04,25,03,07,10.00
2018,04,25,03,08,10.00
2018,04,25,03,09,10.00
2018,04,25,03,10,9.90
2018,04,25,03,11,9.90
2018,04,25,03,12,9.90
2018,04,25,03,13,9.90
2018,04,25,03,14,9.90
2018,04,25,03,15,9.90
2018,04,25,03,16,9.90
2018,04,25,03,17,9.90
2018,04,25,03,18,9.90
2018,04,25,03,19,9.90
2018,04,25,03,20,9.90
2018,04,25,03,21,9.90
2018,04,25,03,22,9.90
2018,04,25,03,23,9.90
2018,04,25,03,24,9.90
2018,04,25,03,25,9.90
2018,04,25,03,26,9.90
2018,04,25,03,27,9.90
2018,04,25,03,28,9.90
2018,04,25,03,29,9.90
2018,04,25,03,30,9.90
2018,04,25,03,31,9.80
2018,04,25,03,32,9.80
2018,04,25,03,33,9.80
2018,04,25,03,34,9.80
2018,04,25,03,35,9.80
2018,04,25,03,36,9.80
2018,04,25,03,37,9.80
2018,04,25,03,38,9.80
2018,04,25,03,39,9.70
2018,04,25,03,40,9.70
2018,04,25,03,41,9.60
2018,04,25,03,42,9.50
2018,04,25,03,43,9.40
2018,04,25,03,44,9.40
2018,04,25,03,45,9.30
2018,04,25,03,46,9.30
2018,04,25,03,47,9.30
2018,04,25,03,48,9.30
2018,04,25,03,49,9.30
2018,04,25,03,50,9.30
2018,04,25,03,51,9.30
2018,04,25,03,52,9.30
2018,04,25,03,53,9.30
2018,04,25,03,54,9.30
2018,04,25,03,55,9.30
2018,04,25,03,56,9.30
2018,04,25,03,57,9.30
2018,04,25,03,58,9.30
2018,04,25,03,59,9.30
2018,04,25,04,00,9.30
2018,04,25,04,01,9.40
2018,04,25,04,02,9.40
2018,04,25,04,03,9.40
2018,04,25,04,04,9.40
2018,04,25,04,05,9.50
2018,04,25,04,06,9.50
2018,04,25,04,07,9.50
2018,04,25,04,08,9.60
2018,04,25,04,09,9.70
2018,04,25,04,10,9.70
2018,04,25,04,11,9.80
2018,04,25,04,12,9.90
2018,04,25,04,13,10.00
2018,04,25,04,14,10.10
2018,04,25,04,15,10.10
2018,04,25,04,16,10.20
2018,04,25,04,17,10.20
2018,04,25,04,18,10.30
2018,04,25,04,19,10.40
2018,04,25,04,20,10.40
2018,04,25,04,21,10.50
2018,04,25,04,22,10.60
2018,04,25,04,23,10.60
2018,04,25,04,24,10.60
2018,04,25,04,25,10.60
2018,04,25,04,26,10.60
2018,04,25,04,27,10.60
2018,04,25,04,28,10.60
2018,04,25,04,29,10.60
2018,04,25,04,30,10.60
2018,04,25,04,31,10.50
2018,04,25,04,32,10.50
2018,04,25,04,33,10.50
2018,04,25,04,34,10.50
2018,04,25,04,35,10.50
2018,04,25,04,36,10.40
2018,04,25,04,37,10.40
2018,04,25,04,38,10.40
2018,04,25,04,39,10.50
2018,04,25,04,40,10.50
2018,04,25,04,41,10.60
2018,04,25,04,42,10.60
2018,04,25,04,43,10.60
2018,04,25,04,44,10.60
2018,04,25,04,45,10.70
2018,04,25,04,46,10.70
2018,04,25,04,47,10.70
2018,04,25,04,48,10.70
2018,04,25,04,49,10.70
2018,04,25,04,50,10.70
2018,04,25,04,51,10.70
2018,04,25,04,52,10.70
2018,04,25,04,53,10.60
2018,04,25,04,54,10.60
2018,04,25,04,55,10.60
2018,04,25,04,56,10.60
2018,04,25,04,57,10.60
2018,04,25,04,58,10.60
2018,04,25,04,59,10.60
2018,04,25,05,00,10.60
2018,04,25,05,01,10.50
2018,04,25,05,02,10.50
2018,04,25,05,03,10.50
2018,04,25,05,04,10.50
2018,04,25,05,05,10.50
2018,04,25,05,06,10.50
2018,04,25,05,07,10.50
2018,04,25,05,08,10.50
2018,04,25,05,09,10.50
2018,04,25,05,10,10.50
2018,04,25,05,11,10.50
2018,04,25,05,12,10.50
2018,04,25,05,13,10.50
2018,04,25,05,14,10.50
2018,04,25,05,15,10.40
2018,04,25,05,16,10.40
2018,04,25,05,17,10.40
2018,04,25,05,18,10.40
2018,04,25,05,19,10.30
2018,04,25,05,20,10.30
2018,04,25,05,21,10.30
2018,04,25,05,22,10.30
2018,04,25,05,23,10.30
2018,04,25,05,24,10.30
2018,04,25,05,25,10.40
2018,04,25,05,26,10.40
2018,04,25,05,27,10.50
2018,04,25,05,28,10.60
2018,04,25,05,29,10.60
2018,04,25,05,30,10.60
2018,04,25,05,31,10.70
2018,04,25,05,32,10.70
2018,04,25,05,33,10.70
2018,04,25,05,34,10.70
2018,04,25,05,35,10.70
2018,04,25,05,36,10.70
2018,04,25,05,37,10.70
2018,04,25,05,38,10.70
2018,04,25,05,39,10.70
2018,04,25,05,40,10.70
2018,04,25,05,41,10.70
2018,04,25,05,42,10.70
2018,04,25,05,43,10.70
2018,04,25,05,44,10.70
2018,04,25,05,45,10.70
2018,04,25,05,46,10.70
2018,04,25,05,47,10.60
2018,04,25,05,48,10.60
2018,04,25,05,49,10.60
2018,04,25,05,50,10.50
2018,04,25,05,51,10.50
2018,04,25,05,52,10.50
2018,04,25,05,53,10.40
2018,04,25,05,54,10.40
2018,04,25,05,55,10.40
2018,04,25,05,56,10.40
2018,04,25,05,57,10.30
2018,04,25,05,58,10.30
2018,04,25,05,59,10.30
2018,04,25,06,00,10.20
2018,04,25,06,01,10.20
2018,04,25,06,02,10.20
2018,04,25,06,03,10.20
2018,04,25,06,04,10.20
2018,04,25,06,05,10.20
2018,04,25,06,06,10.20
2018,04,25,06,07,10.10
2018,04,25,06,08,10.10
2018,04,25,06,09,10.10
2018,04,25,06,10,10.10
2018,04,25,06,11,10.10
2018,04,25,06,12,10.10
2018,04,25,06,13,10.10
2018,04,25,06,14,10.10
2018,04,25,06,15,10.10
2018,04,25,06,16,10.10
2018,04,25,06,17,10.10
2018,04,25,06,18,10.10
2018,04,25,06,19,10.10
2018,04,25,06,20,10.10
2018,04,25,06,21,10.10
2018,04,25,06,22,10.10
2018,04,25,06,23,10.10
2018,04,25,06,24,10.10
2018,04,25,06,25,10.10
2018,04,25,06,26,10.10
2018,04,25,06,27,10.10
2018,04,25,06,28,10.10
2018,04,25,06,29,10.10
2018,04,25,06,30,10.10
2018,04,25,06,31,10.10
2018,04,25,06,32,10.10
2018,04,25,06,33,10.10
2018,04,25,06,34,10.10
2018,04,25,06,35,10.10
2018,04,25,06,36,10.10
2018,04,25,06,37,10.10
2018,04,25,06,38,10.10
2018,04,25,06,39,10.10
2018,04,25,06,40,10.10
2018,04,25,06,41,10.20
2018,04,25,06,42,10.30
2018,04,25,06,43,10.40
2018,04,25,06,44,10.50
2018,04,25,06,45,10.50
2018,04,25,06,46,10.50
2018,04,25,06,47,10.60
2018,04,25,06,48,10.60
2018,04,25,06,49,10.60
2018,04,25,06,50,10.50
2018,04,25,06,51,10.50
2018,04,25,06,52,10.50
2018,04,25,06,53,10.50
2018,04,25,06,54,10.50
2018,04,25,06,55,10.50
2018,04,25,06,56,10.60
2018,04,25,06,57,10.60
2018,04,25,06,58,10.60
2018,04,25,06,59,10.50
2018,04,25,07,00,10.50
2018,04,25,07,01,10.50
2018,04,25,07,02,10.50
2018,04,25,07,03,10.50
2018,04,25,07,04,10.50
2018,04,25,07,05,10.50
2018,04,25,07,06,10.50
2018,04,25,07,07,10.50
2018,04,25,07,08,10.60
2018,04,25,07,09,10.60
2018,04,25,07,10,10.60
2018,04,25,07,11,10.60
2018,04,25,07,12,10.70
2018,04,25,07,13,10.80
2018,04,25,07,14,10.80
2018,04,25,07,15,10.80
2018,04,25,07,16,10.90
2018,04,25,07,17,10.90
2018,04,25,07,18,11.00
2018,04,25,07,19,11.00
2018,04,25,07,20,11.10
2018,04,25,07,21,11.10
2018,04,25,07,22,11.10
2018,04,25,07,23,11.10
2018,04,25,07,24,11.20
2018,04,25,07,25,11.20
2018,04,25,07,26,11.20
2018,04,25,07,27,11.20
2018,04,25,07,28,11.10
2018,04,25,07,29,11.10
2018,04,25,07,30,11.10
2018,04,25,07,31,11.10
2018,04,25,07,32,11.10
2018,04,25,07,33,11.10
2018,04,25,07,34,11.10
2018,04,25,07,35,11.10
2018,04,25,07,36,11.10
2018,04,25,07,37,11.20
2018,04,25,07,38,11.20
2018,04,25,07,39,11.20
2018,04,25,07,40,11.20
2018,04,25,07,41,11.20
2018,04,25,07,42,11.20
2018,04,25,07,43,11.30
2018,04,25,07,44,11.30
2018,04,25,07,45,11.40
2018,04,25,07,46,11.40
2018,04,25,07,47,11.40
2018,04,25,07,48,11.40
2018,04,25,07,49,11.40
2018,04,25,07,50,11.50
2018,04,25,07,51,11.50
2018,04,25,07,52,11.60
2018,04,25,07,53,11.60
2018,04,25,07,54,11.70
2018,04,25,07,55,11.70
2018,04,25,07,56,11.70
2018,04,25,07,57,11.80
2018,04,25,07,58,11.80
2018,04,25,07,59,11.90
2018,04,25,08,00,11.90
2018,04,25,08,01,12.00
2018,04,25,08,02,12.00
2018,04,25,08,03,12.10
2018,04,25,08,04,12.10
2018,04,25,08,05,12.20
2018,04,25,08,06,12.20
2018,04,25,08,07,12.30
2018,04,25,08,08,12.30
2018,04,25,08,09,12.30
2018,04,25,08,10,12.40
2018,04,25,08,11,12.40
2018,04,25,08,12,12.40
2018,04,25,08,13,12.50
2018,04,25,08,14,12.50
2018,04,25,08,15,12.50
2018,04,25,08,16,12.50
2018,04,25,08,17,12.50
2018,04,25,08,18,12.50
2018,04,25,08,19,12.50
2018,04,25,08,20,12.50
2018,04,25,08,21,12.50
2018,04,25,08,22,12.50
2018,04,25,08,23,12.50
2018,04,25,08,24,12.50
2018,04,25,08,25,12.50
2018,04,25,08,26,12.50
2018,04,25,08,27,12.60
2018,04,25,08,28,12.60
2018,04,25,08,29,12.60
2018,04,25,08,30,12.70
2018,04,25,08,31,12.70
2018,04,25,08,32,12.70
2018,04,25,08,33,12.80
2018,04,25,08,34,12.90
2018,04,25,08,35,13.00
2018,04,25,08,36,13.00
2018,04,25,08,37,13.10
2018,04,25,08,38,13.20
2018,04,25,08,39,13.20
2018,04,25,08,40,13.30
2018,04,25,08,41,13.30
2018,04,25,08,42,13.40
2018,04,25,08,43,13.50
2018,04,25,08,44,13.60
2018,04,25,08,45,13.60
2018,04,25,08,46,13.70
2018,04,25,08,47,13.80
2018,04,25,08,48,13.90
2018,04,25,08,49,14.00
2018,04,25,08,50,14.10
2018,04,25,08,51,14.20
2018,04,25,08,52,14.30
2018,04,25,08,53,14.40
2018,04,25,08,54,14.50
2018,04,25,08,55,14.60
2018,04,25,08,56,14.60
2018,04,25,08,57,14.70
2018,04,25,08,58,14.80
2018,04,25,08,59,14.80
2018,04,25,09,00,14.90
2018,04,25,09,01,15.00
2018,04,25,09,02,15.10
2018,04,25,09,03,15.10
2018,04,25,09,04,15.20
2018,04,25,09,05,15.30
2018,04,25,09,06,15.30
2018,04,25,09,07,15.40
2018,04,25,09,08,15.50
2018,04,25,09,09,15.50
2018,04,25,09,10,15.60
2018,04,25,09,11,15.60
2018,04,25,09,12,15.70
2018,04,25,09,13,15.70
2018,04,25,09,14,15.80
2018,04,25,09,15,15.80
2018,04,25,09,16,15.90
2018,04,25,09,17,15.90
2018,04,25,09,18,16.00
2018,04,25,09,19,16.10
2018,04,25,09,20,16.20
2018,04,25,09,21,16.20
2018,04,25,09,22,16.30
2018,04,25,09,23,16.30
2018,04,25,09,24,16.30
2018,04,25,09,25,16.30
2018,04,25,09,26,16.30
2018,04,25,09,27,16.20
2018,04,25,09,28,16.20
2018,04,25,09,29,16.20
2018,04,25,09,30,16.20
2018,04,25,09,31,16.20
2018,04,25,09,32,16.20
2018,04,25,09,33,16.10
2018,04,25,09,34,16.10
2018,04,25,09,35,16.00
2018,04,25,09,36,15.90
2018,04,25,09,37,15.90
2018,04,25,09,38,15.80
2018,04,25,09,39,15.70
2018,04,25,09,40,15.70
2018,04,25,09,41,15.60
2018,04,25,09,42,15.50
2018,04,25,09,43,15.40
2018,04,25,09,44,15.30
2018,04,25,09,45,15.30
2018,04,25,09,46,15.30
2018,04,25,09,47,15.30
2018,04,25,09,48,15.30
2018,04,25,09,49,15.20
2018,04,25,09,50,15.20
2018,04,25,09,51,15.20
2018,04,25,09,52,15.20
2018,04,25,09,53,15.20
2018,04,25,09,54,15.20
2018,04,25,09,55,15.20
2018,04,25,09,56,15.30
2018,04,25,09,57,15.30
2018,04,25,09,58,15.30
2018,04,25,09,59,15.40
2018,04,25,10,00,15.40
2018,04,25,10,01,15.50
2018,04,25,10,02,15.60
2018,04,25,10,03,15.70
2018,04,25,10,04,15.70
2018,04,25,10,05,15.70
2018,04,25,10,06,15.70
2018,04,25,10,07,15.70
2018,04,25,10,08,15.70
2018,04,25,10,09,15.80
2018,04,25,10,10,15.80
2018,04,25,10,11,15.80
2018,04,25,10,12,15.90
2018,04,25,10,13,16.00
2018,04,25,10,14,16.00
2018,04,25,10,15,16.10
2018,04,25,10,16,16.20
2018,04,25,10,17,16.30
2018,04,25,10,18,16.40
2018,04,25,10,19,16.50
2018,04,25,10,20,16.60
2018,04,25,10,21,16.60
2018,04,25,10,22,16.60
2018,04,25,10,23,16.60
2018,04,25,10,24,16.60
2018,04,25,10,25,16.60
2018,04,25,10,26,16.60
2018,04,25,10,27,16.60
2018,04,25,10,28,16.60
2018,04,25,10,29,16.60
2018,04,25,10,30,16.70
2018,04,25,10,31,16.70
2018,04,25,10,32,16.80
2018,04,25,10,33,16.80
2018,04,25,10,34,16.90
2018,04,25,10,35,16.90
2018,04,25,10,36,17.00
2018,04,25,10,37,17.00
2018,04,25,10,38,17.10
2018,04,25,10,39,17.10
2018,04,25,10,40,17.10
2018,04,25,10,41,17.10
2018,04,25,10,42,17.20
2018,04,25,10,43,17.20
2018,04,25,10,44,17.20
2018,04,25,10,45,17.20
2018,04,25,10,46,17.30
2018,04,25,10,47,17.30
2018,04,25,10,48,17.30
2018,04,25,10,49,17.40
2018,04,25,10,50,17.40
2018,04,25,10,51,17.50
2018,04,25,10,52,17.50
2018,04,25,10,53,17.60
2018,04,25,10,54,17.60
2018,04,25,10,55,17.70
2018,04,25,10,56,17.70
2018,04,25,10,57,17.80
2018,04,25,10,58,17.80
2018,04,25,10,59,17.90
2018,04,25,11,00,18.00
2018,04,25,11,01,18.00
2018,04,25,11,02,18.00
2018,04,25,11,03,18.00
2018,04,25,11,04,17.90
2018,04,25,11,05,17.80
2018,04,25,11,06,17.80
2018,04,25,11,07,17.70
2018,04,25,11,08,17.70
2018,04,25,11,09,17.70
2018,04,25,11,10,17.70
2018,04,25,11,11,17.80
2018,04,25,11,12,17.80
2018,04,25,11,13,17.90
2018,04,25,11,14,17.90
2018,04,25,11,15,18.00
2018,04,25,11,16,18.00
2018,04,25,11,17,18.10
2018,04,25,11,18,18.20
2018,04,25,11,19,18.30
2018,04,25,11,20,18.40
2018,04,25,11,21,18.40
2018,04,25,11,22,18.50
2018,04,25,11,23,18.60
2018,04,25,11,24,18.70
2018,04,25,11,25,18.70
2018,04,25,11,26,18.70
2018,04,25,11,27,18.70
2018,04,25,11,28,18.70
2018,04,25,11,29,18.70
2018,04,25,11,30,18.70
2018,04,25,11,31,18.70
2018,04,25,11,32,18.70
2018,04,25,11,33,18.70
2018,04,25,11,34,18.70
2018,04,25,11,35,18.70
2018,04,25,11,36,18.70
2018,04,25,11,37,18.70
2018,04,25,11,38,18.80
2018,04,25,11,39,18.80
2018,04,25,11,40,18.90
2018,04,25,11,41,19.00
2018,04,25,11,42,19.00
2018,04,25,11,43,19.10
2018,04,25,11,44,19.10
2018,04,25,11,45,19.00
2018,04,25,11,46,19.10
2018,04,25,11,47,19.20
2018,04,25,11,48,19.30
2018,04,25,11,49,19.40
2018,04,25,11,50,19.40
2018,04,25,11,51,19.40
2018,04,25,11,52,19.30
2018,04,25,11,53,19.20
2018,04,25,11,54,19.10
2018,04,25,11,55,19.00
2018,04,25,11,56,18.80
2018,04,25,11,57,18.70
2018,04,25,11,58,18.70
2018,04,25,11,59,18.60
2018,04,25,12,00,18.60
2018,04,25,12,01,18.60
2018,04,25,12,02,18.70
2018,04,25,12,03,18.60
2018,04,25,12,04,18.60
2018,04,25,12,05,18.50
2018,04,25,12,06,18.50
2018,04,25,12,07,18.50
2018,04,25,12,08,18.60
2018,04,25,12,09,18.60
2018,04,25,12,10,18.50
2018,04,25,12,11,18.50
2018,04,25,12,12,18.50
2018,04,25,12,13,18.50
2018,04,25,12,14,18.40
2018,04,25,12,15,18.40
2018,04,25,12,16,18.40
2018,04,25,12,17,18.30
2018,04,25,12,18,18.30
2018,04,25,12,19,18.30
2018,04,25,12,20,18.20
2018,04,25,12,21,18.20
2018,04,25,12,22,18.30
2018,04,25,12,23,18.30
2018,04,25,12,24,18.40
2018,04,25,12,25,18.40
2018,04,25,12,26,18.50
2018,04,25,12,27,18.50
2018,04,25,12,28,18.40
2018,04,25,12,29,18.40
2018,04,25,12,30,18.50
2018,04,25,12,31,18.50
2018,04,25,12,32,18.50
2018,04,25,12,33,18.60
2018,04,25,12,34,18.70
2018,04,25,12,35,18.80
2018,04,25,12,36,18.80
2018,04,25,12,37,18.80
2018,04,25,12,38,18.80
2018,04,25,12,39,18.80
2018,04,25,12,40,18.70
2018,04,25,12,41,18.80
2018,04,25,12,42,18.90
2018,04,25,12,43,19.00
2018,04,25,12,44,19.00
2018,04,25,12,45,18.90
2018,04,25,12,46,18.90
2018,04,25,12,47,18.90
2018,04,25,12,48,19.00
2018,04,25,12,49,19.10
2018,04,25,12,50,19.10
2018,04,25,12,51,19.20
2018,04,25,12,52,19.20
2018,04,25,12,53,19.30
2018,04,25,12,54,19.30
2018,04,25,12,55,19.40
2018,04,25,12,56,19.40
2018,04,25,12,57,19.40
2018,04,25,12,58,19.40
2018,04,25,12,59,19.40
2018,04,25,13,00,19.40
2018,04,25,13,01,19.50
2018,04,25,13,02,19.60
2018,04,25,13,03,19.70
2018,04,25,13,04,19.80
2018,04,25,13,05,19.70
2018,04,25,13,06,19.60
2018,04,25,13,07,19.50
2018,04,25,13,08,19.40
2018,04,25,13,09,19.30
2018,04,25,13,10,19.20
2018,04,25,13,11,19.10
2018,04,25,13,12,19.00
2018,04,25,13,13,18.90
2018,04,25,13,14,18.80
2018,04,25,13,15,18.70
2018,04,25,13,16,18.70
2018,04,25,13,17,18.70
2018,04,25,13,18,18.70
2018,04,25,13,19,18.70
2018,04,25,13,20,18.60
2018,04,25,13,21,18.60
2018,04,25,13,22,18.60
2018,04,25,13,23,18.60
2018,04,25,13,24,18.60
2018,04,25,13,25,18.60
2018,04,25,13,26,18.50
2018,04,25,13,27,18.50
2018,04,25,13,28,18.60
2018,04,25,13,29,18.80
2018,04,25,13,30,18.90
2018,04,25,13,31,19.00
2018,04,25,13,32,19.20
2018,04,25,13,33,19.20
2018,04,25,13,34,19.20
2018,04,25,13,35,19.10
2018,04,25,13,36,19.10
2018,04,25,13,37,19.00
2018,04,25,13,38,19.00
2018,04,25,13,39,19.00
2018,04,25,13,40,19.00
2018,04,25,13,41,19.00
2018,04,25,13,42,19.10
2018,04,25,13,43,19.10
2018,04,25,13,44,19.10
2018,04,25,13,45,19.10
2018,04,25,13,46,19.20
2018,04,25,13,47,19.10
2018,04,25,13,48,19.00
2018,04,25,13,49,18.90
2018,04,25,13,50,18.90
2018,04,25,13,51,18.90
2018,04,25,13,52,19.00
2018,04,25,13,53,19.00
2018,04,25,13,54,19.10
2018,04,25,13,55,19.10
2018,04,25,13,56,19.10
2018,04,25,13,57,19.00
2018,04,25,13,58,18.90
2018,04,25,13,59,18.90
2018,04,25,14,00,18.80
2018,04,25,14,01,18.90
2018,04,25,14,02,18.90
2018,04,25,14,03,18.90
2018,04,25,14,04,19.00
2018,04,25,14,05,19.10
2018,04,25,14,06,19.20
2018,04,25,14,07,19.30
2018,04,25,14,08,19.40
2018,04,25,14,09,19.40
2018,04,25,14,10,19.30
2018,04,25,14,11,19.20
2018,04,25,14,12,19.20
2018,04,25,14,13,19.10
2018,04,25,14,14,19.10
2018,04,25,14,15,19.10
2018,04,25,14,16,19.00
2018,04,25,14,17,19.00
2018,04,25,14,18,19.10
2018,04,25,14,19,19.10
2018,04,25,14,20,19.20
2018,04,25,14,21,19.30
2018,04,25,14,22,19.30
2018,04,25,14,23,19.30
2018,04,25,14,24,19.30
2018,04,25,14,25,19.30
2018,04,25,14,26,19.30
2018,04,25,14,27,19.30
2018,04,25,14,28,19.30
2018,04,25,14,29,19.40
2018,04,25,14,30,19.40
2018,04,25,14,31,19.50
2018,04,25,14,32,19.60
2018,04,25,14,33,19.70
2018,04,25,14,34,19.70
2018,04,25,14,35,19.70
2018,04,25,14,36,19.60
2018,04,25,14,37,19.60
2018,04,25,14,38,19.60
2018,04,25,14,39,19.70
2018,04,25,14,40,19.80
2018,04,25,14,41,19.90
2018,04,25,14,42,19.90
2018,04,25,14,43,19.90
2018,04,25,14,44,19.80
2018,04,25,14,45,19.60
2018,04,25,14,46,19.30
2018,04,25,14,47,19.00
2018,04,25,14,48,18.80
2018,04,25,14,49,18.60
2018,04,25,14,50,18.40
2018,04,25,14,51,18.40
2018,04,25,14,52,18.40
2018,04,25,14,53,18.40
2018,04,25,14,54,18.50
2018,04,25,14,55,18.40
2018,04,25,14,56,18.50
2018,04,25,14,57,18.50
2018,04,25,14,58,18.50
2018,04,25,14,59,18.50
2018,04,25,15,00,18.40
2018,04,25,15,01,18.30
2018,04,25,15,02,18.30
2018,04,25,15,03,18.20
2018,04,25,15,04,18.20
2018,04,25,15,05,18.20
2018,04,25,15,06,18.10
2018,04,25,15,07,18.10
2018,04,25,15,08,18.20
2018,04,25,15,09,18.30
2018,04,25,15,10,18.20
2018,04,25,15,11,18.20
2018,04,25,15,12,18.10
2018,04,25,15,13,18.00
2018,04,25,15,14,18.00
2018,04,25,15,15,18.00
2018,04,25,15,16,18.10
2018,04,25,15,17,18.10
2018,04,25,15,18,18.10
2018,04,25,15,19,18.20
2018,04,25,15,20,18.20
2018,04,25,15,21,18.20
2018,04,25,15,22,18.30
2018,04,25,15,23,18.30
2018,04,25,15,24,18.30
2018,04,25,15,25,18.40
2018,04,25,15,26,18.40
2018,04,25,15,27,18.50
2018,04,25,15,28,18.60
2018,04,25,15,29,18.60
2018,04,25,15,30,18.70
2018,04,25,15,31,18.80
2018,04,25,15,32,18.90
2018,04,25,15,33,18.80
2018,04,25,15,34,18.80
2018,04,25,15,35,18.80
2018,04,25,15,36,18.80
2018,04,25,15,37,18.80
2018,04,25,15,38,18.70
2018,04,25,15,39,18.70
2018,04,25,15,40,18.60
2018,04,25,15,41,18.50
2018,04,25,15,42,18.50
2018,04,25,15,43,18.40
2018,04,25,15,44,18.40
2018,04,25,15,45,18.40
2018,04,25,15,46,18.40
2018,04,25,15,47,18.40
2018,04,25,15,48,18.40
2018,04,25,15,49,18.40
2018,04,25,15,50,18.60
2018,04,25,15,51,18.70
2018,04,25,15,52,18.70
2018,04,25,15,53,18.70
2018,04,25,15,54,18.70
2018,04,25,15,55,18.60
2018,04,25,15,56,18.60
2018,04,25,15,57,18.60
2018,04,25,15,58,18.60
2018,04,25,15,59,18.70
2018,04,25,16,00,18.70
2018,04,25,16,01,18.70
2018,04,25,16,02,18.80
2018,04,25,16,03,18.80
2018,04,25,16,04,18.80
2018,04,25,16,05,18.80
2018,04,25,16,06,18.80
2018,04,25,16,07,18.70
2018,04,25,16,08,18.50
2018,04,25,16,09,18.40
2018,04,25,16,10,18.40
2018,04,25,16,11,18.40
2018,04,25,16,12,18.40
2018,04,25,16,13,18.40
2018,04,25,16,14,18.40
2018,04,25,16,15,18.50
2018,04,25,16,16,18.60
2018,04,25,16,17,18.70
2018,04,25,16,18,18.70
2018,04,25,16,19,18.80
2018,04,25,16,20,18.80
2018,04,25,16,21,18.80
2018,04,25,16,22,18.80
2018,04,25,16,23,18.90
2018,04,25,16,24,18.90
2018,04,25,16,25,18.90
2018,04,25,16,26,19.00
2018,04,25,16,27,19.10
2018,04,25,16,28,19.10
2018,04,25,16,29,19.20
2018,04,25,16,30,19.30
2018,04,25,16,31,19.40
2018,04,25,16,32,19.40
2018,04,25,16,33,19.40
2018,04,25,16,34,19.40
2018,04,25,16,35,19.40
2018,04,25,16,36,19.30
2018,04,25,16,37,19.30
2018,04,25,16,38,19.20
2018,04,25,16,39,19.20
2018,04,25,16,40,19.20
2018,04,25,16,41,19.30
2018,04,25,16,42,19.40
2018,04,25,16,43,19.40
2018,04,25,16,44,19.50
2018,04,25,16,45,19.60
2018,04,25,16,46,19.60
2018,04,25,16,47,19.60
2018,04,25,16,48,19.60
2018,04,25,16,49,19.60
2018,04,25,16,50,19.60
2018,04,25,16,51,19.60
2018,04,25,16,52,19.60
2018,04,25,16,53,19.60
2018,04,25,16,54,19.60
2018,04,25,16,55,19.60
2018,04,25,16,56,19.60
2018,04,25,16,57,19.60
2018,04,25,16,58,19.60
2018,04,25,16,59,19.60
2018,04,25,17,00,19.60
2018,04,25,17,01,19.50
2018,04,25,17,02,19.40
2018,04,25,17,03,19.40
2018,04,25,17,04,19.40
2018,04,25,17,05,19.40
2018,04,25,17,06,19.40
2018,04,25,17,07,19.40
2018,04,25,17,08,19.40
2018,04,25,17,09,19.40
2018,04,25,17,10,19.40
2018,04,25,17,11,19.30
2018,04,25,17,12,19.30
2018,04,25,17,13,19.30
2018,04,25,17,14,19.30
2018,04,25,17,15,19.30
2018,04,25,17,16,19.30
2018,04,25,17,17,19.30
2018,04,25,17,18,19.30
2018,04,25,17,19,19.30
2018,04,25,17,20,19.30
2018,04,25,17,21,19.30
2018,04,25,17,22,19.30